| time (UTC) | temp F | wind direction | speed knots | gust knots | rain 1hr in | rain 24hr in | rain mn in | humidity % | barometer mb |
| 20260904060132 | 62 | 305 | 4.3 | 14.8 | 0.00 | 0.05 | 0.03 | 85 | 1010.3 |
| 20260904054536 | 62 | 252 | 4.3 | 8.7 | 0.00 | 0.05 | 0.03 | 88 | 1010.2 |
| 20260904053031 | 62 | 309 | 4.3 | 12.2 | 0.00 | 0.05 | 0.03 | 89 | 1009.9 |
| 20260904051530 | 62 | 316 | 3.5 | 13.0 | 0.00 | 0.05 | 0.03 | 89 | 1010.0 |
| 20260904050029 | 62 | 217 | 5.2 | 12.2 | 0.00 | 0.05 | 0.03 | 87 | 1009.8 |
| 20260904044540 | 62 | 103 | 1.7 | 8.7 | 0.00 | 0.05 | 0.03 | 87 | 1009.7 |
| 20260904043035 | 62 | 127 | 1.7 | 7.8 | 0.00 | 0.05 | 0.03 | 86 | 1009.6 |
| 20260904041527 | 62 | 285 | 3.5 | 7.8 | 0.00 | 0.05 | 0.03 | 85 | 1009.4 |
| 20260904040027 | 62 | 301 | 4.3 | 12.2 | 0.00 | 0.05 | 0.03 | 85 | 1009.7 |
| 20260904034525 | 62 | 277 | 5.2 | 10.4 | 0.00 | 0.05 | 0.03 | 87 | 1009.7 |
| 20260904033024 | 62 | 333 | 5.2 | 12.2 | 0.00 | 0.05 | 0.03 | 86 | 1009.9 |
| 20260904031523 | 62 | 250 | 5.2 | 15.6 | 0.03 | 0.05 | 0.03 | 87 | 1010.0 |
| 20260904030023 | 61 | 318 | 6.1 | 11.3 | 0.03 | 0.05 | 0.03 | 89 | 1010.4 |
| 20260904024519 | 60 | 284 | 1.7 | 13.0 | 0.03 | 0.05 | 0.03 | 91 | 1010.6 |
| 20260904023016 | 60 | 316 | 4.3 | 9.6 | 0.03 | 0.05 | 0.03 | 89 | 1010.8 |
| 20260904021522 | 61 | 64 | 3.5 | 11.3 | 0.00 | 0.02 | 0.00 | 85 | 1010.8 |
| 20260904020015 | 62 | 113 | 2.6 | 8.7 | 0.00 | 0.02 | 0.00 | 82 | 1010.7 |
| 20260904014512 | 62 | 245 | 4.3 | 12.2 | 0.00 | 0.02 | 0.00 | 83 | 1011.1 |
| 20260904013009 | 61 | 221 | 5.2 | 9.6 | 0.00 | 0.02 | 0.00 | 85 | 1011.8 |
| 20260904011507 | 61 | 333 | 3.5 | 11.3 | 0.00 | 0.02 | 0.00 | 85 | 1012.1 |
| 20260904010005 | 61 | 236 | 5.2 | 12.2 | 0.00 | 0.02 | 0.00 | 83 | 1012.5 |
| 20260904004504 | 63 | 304 | 4.3 | 11.3 | 0.00 | 0.02 | 0.00 | 79 | 1012.5 |
| 20260904003003 | 63 | 288 | 3.5 | 10.4 | 0.00 | 0.02 | 0.00 | 75 | 1012.7 |
| 20260904001601 | 63 | 276 | 2.6 | 12.2 | 0.00 | 0.02 | 0.00 | 74 | 1012.9 |
| 20260904000058 | 63 | 344 | 4.3 | 13.0 | 0.00 | 0.02 | 0.00 | 77 | 1013.4 |
| 20260903234558 | 62 | 328 | 3.5 | 8.7 | 0.00 | 0.02 | 0.00 | 78 | 1013.2 |
| 20260903233054 | 62 | 319 | 2.6 | 8.7 | 0.00 | 0.02 | 0.00 | 77 | 1013.6 |
| 20260903231603 | 62 | 295 | 3.5 | 10.4 | 0.00 | 0.02 | 0.00 | 75 | 1014.1 |
| 20260903230053 | 62 | 41 | 5.2 | 10.4 | 0.00 | 0.02 | 0.00 | 74 | 1014.2 |
| 20260903224551 | 63 | 127 | 2.6 | 9.6 | 0.00 | 0.02 | 0.00 | 72 | 1014.2 |
| 20260903223049 | 62 | 325 | 5.2 | 10.4 | 0.00 | 0.02 | 0.00 | 71 | 1014.3 |
| 20260903221548 | 63 | 264 | 3.5 | 7.8 | 0.00 | 0.02 | 0.00 | 72 | 1014.7 |
| 20260903220049 | 63 | 257 | 2.6 | 9.6 | 0.00 | 0.02 | 0.00 | 73 | 1014.5 |
| 20260903214546 | 62 | 245 | 5.2 | 12.2 | 0.00 | 0.02 | 0.00 | 74 | 1014.5 |
| 20260903213042 | 63 | 323 | 6.1 | 13.0 | 0.00 | 0.02 | 0.00 | 71 | 1014.8 |
| 20260903211540 | 63 | 288 | 5.2 | 18.2 | 0.00 | 0.02 | 0.00 | 72 | 1015.0 |
| 20260903210042 | 62 | 337 | 6.1 | 17.4 | 0.00 | 0.02 | 0.00 | 74 | 1015.2 |
| 20260903204533 | 61 | 266 | 7.0 | 12.2 | 0.00 | 0.02 | 0.00 | 76 | 1015.3 |
| 20260903203030 | 61 | 253 | 7.0 | 13.0 | 0.00 | 0.02 | 0.00 | 78 | 1015.4 |
| 20260903201526 | 59 | 322 | 4.3 | 12.2 | 0.00 | 0.02 | 0.00 | 82 | 1015.5 |
| 20260903200025 | 59 | 287 | 3.5 | 7.8 | 0.00 | 0.02 | 0.00 | 83 | 1015.6 |
| 20260903194524 | 59 | 224 | 4.3 | 8.7 | 0.00 | 0.02 | 0.00 | 84 | 1015.7 |
| 20260903193023 | 59 | 252 | 2.6 | 10.4 | 0.00 | 0.02 | 0.00 | 84 | 1015.7 |
| 20260903191520 | 59 | 243 | 4.3 | 11.3 | 0.00 | 0.02 | 0.00 | 84 | 1015.7 |
| 20260903190018 | 59 | 280 | 3.5 | 11.3 | 0.00 | 0.02 | 0.00 | 84 | 1015.8 |
| 20260903184515 | 59 | 276 | 4.3 | 10.4 | 0.00 | 0.02 | 0.00 | 84 | 1015.8 |
| 20260903183013 | 59 | 238 | 3.5 | 10.4 | 0.00 | 0.02 | 0.00 | 84 | 1015.9 |
| 20260903181511 | 59 | 238 | 3.5 | 9.6 | 0.00 | 0.02 | 0.00 | 84 | 1016.0 |
| 20260903180008 | 58 | 36 | 3.5 | 7.8 | 0.00 | 0.02 | 0.00 | 84 | 1015.8 |
| 20260903174508 | 58 | 278 | 2.6 | 7.0 | 0.00 | 0.02 | 0.00 | 84 | 1015.8 |
| 20260903173016 | 58 | 243 | 3.5 | 8.7 | 0.00 | 0.02 | 0.00 | 85 | 1015.8 |
| 20260903171504 | 58 | 303 | 3.5 | 8.7 | 0.00 | 0.02 | 0.00 | 86 | 1015.9 |
| 20260903170009 | 59 | 309 | 4.3 | 10.4 | 0.00 | 0.02 | 0.00 | 85 | 1016.1 |
| 20260903164606 | 58 | 27 | 2.6 | 6.1 | 0.00 | 0.02 | 0.00 | 86 | 1016.2 |
| 20260903163059 | 59 | 46 | 2.6 | 8.7 | 0.00 | 0.02 | 0.00 | 86 | 1016.1 |
| 20260903161558 | 59 | 300 | 3.5 | 7.0 | 0.00 | 0.02 | 0.00 | 86 | 1016.0 |
| 20260903160059 | 59 | 26 | 3.5 | 10.4 | 0.00 | 0.02 | 0.00 | 86 | 1015.9 |
| 20260903154558 | 59 | 315 | 3.5 | 10.4 | 0.00 | 0.02 | 0.00 | 86 | 1015.8 |
| 20260903153056 | 59 | 207 | 1.7 | 8.7 | 0.00 | 0.02 | 0.00 | 87 | 1015.9 |
| 20260903151554 | 59 | 139 | 1.7 | 6.1 | 0.00 | 0.02 | 0.00 | 87 | 1015.9 |
| 20260903150054 | 59 | 238 | 2.6 | 7.0 | 0.00 | 0.02 | 0.00 | 86 | 1016.0 |
| 20260903144551 | 60 | 252 | 2.6 | 6.1 | 0.00 | 0.02 | 0.00 | 87 | 1016.1 |
| 20260903143105 | 60 | 284 | 4.3 | 12.2 | 0.00 | 0.02 | 0.00 | 87 | 1016.2 |
| 20260903141545 | 60 | 317 | 4.3 | 8.7 | 0.00 | 0.02 | 0.00 | 88 | 1016.5 |
| 20260903140041 | 60 | 276 | 2.6 | 7.0 | 0.00 | 0.02 | 0.00 | 88 | 1016.5 |
| 20260903134540 | 60 | 259 | 2.6 | 8.7 | 0.00 | 0.02 | 0.00 | 89 | 1016.6 |
| 20260903133039 | 59 | 288 | 1.7 | 7.8 | 0.00 | 0.02 | 0.00 | 89 | 1016.6 |
| 20260903131543 | 59 | 342 | 3.5 | 8.7 | 0.00 | 0.02 | 0.00 | 90 | 1016.8 |
| 20260903130034 | 59 | 308 | 1.7 | 6.1 | 0.00 | 0.02 | 0.00 | 92 | 1016.8 |
| 20260903124534 | 59 | 337 | 1.7 | 4.3 | 0.00 | 0.02 | 0.00 | 92 | 1016.7 |
| 20260903123037 | 59 | 348 | 0.9 | 5.2 | 0.00 | 0.02 | 0.00 | 91 | 1016.7 |
| 20260903121533 | 59 | 91 | 0.9 | 3.5 | 0.00 | 0.02 | 0.00 | 91 | 1016.7 |
| 20260903120024 | 59 | 99 | 0.0 | 3.5 | 0.00 | 0.02 | 0.00 | 90 | 1016.9 |
| 20260903114525 | 59 | 20 | 0.9 | 4.3 | 0.01 | 0.02 | 0.02 | 90 | 1017.0 |
| 20260903113034 | 59 | 353 | 1.7 | 4.3 | 0.01 | 0.02 | 0.02 | 90 | 1017.2 |
| 20260903111521 | 58 | 285 | 2.6 | 7.0 | 0.02 | 0.02 | 0.02 | 91 | 1017.3 |
| 20260903110019 | 58 | 319 | 2.6 | 8.7 | 0.02 | 0.02 | 0.02 | 92 | 1017.4 |
| 20260903104518 | 57 | 328 | 0.9 | 3.5 | 0.01 | 0.01 | 0.01 | 92 | 1017.6 |
| 20260903103018 | 57 | 107 | 0.0 | 3.5 | 0.01 | 0.01 | 0.01 | 91 | 1017.5 |
| 20260903101522 | 57 | 89 | 0.9 | 3.5 | 0.00 | 0.00 | 0.00 | 91 | 1017.6 |
| 20260903100021 | 57 | 5 | 0.9 | 4.3 | 0.00 | 0.00 | 0.00 | 91 | 1017.8 |
| 20260903094516 | 57 | 100 | 0.9 | 4.3 | 0.00 | 0.00 | 0.00 | 91 | 1017.8 |
| 20260903093015 | 58 | 128 | 0.9 | 7.0 | 0.00 | 0.00 | 0.00 | 91 | 1018.0 |
| 20260903091519 | 57 | 90 | 0.9 | 3.5 | 0.00 | 0.00 | 0.00 | 89 | 1017.9 |
| 20260903090014 | 57 | 115 | 0.9 | 3.5 | 0.00 | 0.00 | 0.00 | 89 | 1017.9 |
| 20260903084520 | 57 | 86 | 1.7 | 4.3 | 0.00 | 0.00 | 0.00 | 88 | 1017.9 |
| 20260903083014 | 57 | 86 | 0.9 | 5.2 | 0.00 | 0.00 | 0.00 | 88 | 1017.9 |
| 20260903081515 | 56 | 103 | 0.9 | 1.7 | 0.00 | 0.00 | 0.00 | 88 | 1017.9 |
| 20260903080012 | 56 | 111 | 0.0 | 1.7 | 0.00 | 0.00 | 0.00 | 88 | 1018.1 |
| 20260903074512 | 56 | 179 | 0.0 | 1.7 | 0.00 | 0.00 | 0.00 | 88 | 1018.0 |
| 20260903073011 | 56 | 252 | 0.0 | 2.6 | 0.00 | 0.00 | 0.00 | 88 | 1018.0 |
| 20260903071509 | 56 | 224 | 0.0 | 2.6 | 0.00 | 0.00 | 0.00 | 87 | 1017.9 |
| 20260903070009 | 56 | 214 | 1.7 | 3.5 | 0.00 | 0.00 | 0.00 | 87 | 1017.9 |
| 20260903064508 | 56 | 164 | 0.9 | 3.5 | 0.00 | 0.00 | 0.00 | 85 | 1017.8 |
| 20260903063007 | 57 | 294 | 0.9 | 6.1 | 0.00 | 0.00 | 0.00 | 81 | 1017.8 |
| 20260903061506 | 58 | 245 | 3.5 | 7.0 | 0.00 | 0.00 | 0.00 | 79 | 1017.7 |